Retour au catalogue

STARLINK-36373

ActifCommunicationsSSO
NORAD 68039·PAYLOAD·🇺🇸 United States

Lancé Mar 1, 2026 depuis Vandenberg Space Force Base

Loading…

Prochains Passages (prochaines 24 heures)

TLE

FraisSource: CelesTrak SupGP

Époque: Sep 15, 2026, 03:03 UTC

1 68039C 26040AA  26258.12756944  .00036799  00000+0  11442-2 0  2584
2 68039  97.2854 205.5619 0002157  93.9039 350.2563 15.33366751    14

Suivez STARLINK-36373 en temps réel avec AllMySat

Download on the App Store